Tracking 23752 objects as of 24-Oct-2021
HD Live streaming from Space Station
objects crossing your sky now

CZ-2C R/B

Track CZ-2C R/B now!
10-day predictions


NORAD ID: 37731
Int'l Code: 2011-030B
Perigee: 610.6 km
Apogee: 695.5 km
Inclination: 97.7 °
Period: 97.6 minutes
Semi major axis: 7024 km
RCS: 8.527 m2 (large)
Launch date: July 6, 2011
Source: People's Republic of China (PRC)
Launch site: Jiuquan Satellite Launch Center, China (JSC)

Note: This is a ROCKET BODY
aabbcc
Your satellite tracking list
Your tracking list is empty




NASA's NSSDC Master Catalog

Two Line Element Set (TLE):
1 37731U 11030B   21297.56563330  .00000180  00000-0  33307-4 0  9997
2 37731  97.6552 291.7338 0060489 131.1788 342.3433 14.74760878554284
Source of the keplerian elements: AFSPC